STARLINK-32955, 63117

Orbit data source: Space-Track

STARLINK-32955, 63117 is a payload satellite owned by SpaceX/Seattle (US) in LEO that was launched on Thu, 27 Feb 2025 UTC via an FALCON 9 launch vehicle from the Air Force Eastern Test Range (AFETR). Payload-class satellites include a variety of spacecraft equipped with specific instruments for various scientific and technological missions. These include communications satellites like Starlink; space stations such as the ISS; scientific satellites like the Hubble; Earth observation satellites from companies like Planet Labs, Umbra, and HawkEye 360; GPS; miniature CubeSats for education and research; and military/defense satellites.

Loading next visibility...
Identifier
63117, 2025-039P
Orbit
LEO
Country
Flag of USUS
Related business
Manufacturer
SpaceX/Seattle
Mission
Operational Commercial Communications
Bus & Motor
STARLINK V2M, Unknown motor
Mass
730 kg wet, ~700 kg dry
Launch date (UTC)
2025-02-27 (8 months ago)
Launch vehicle
FALCON 9
Launch site
Air Force Eastern Test Range (AFETR)
Object type
Payload
Rocket body
Debris
Shape & HBR
Box + 2 Pan, 17.7 m
Radar Cross Section
33.884 m², Large (>1 m²)

Expand to show TLE details & history
Last TLE update: 18 hours ago

TLE from 18 hours ago
0 STARLINK-32955
1 63117U 25039P   25287.90268061  .00018030  00000-0  66311-3 0  9995
2 63117  43.0017 115.8452 0001550 270.8413  89.2261 15.27580273 35777
Epoch: 2025-10-14T21:39Z
TLE epoch observation values (Epoch: 2025-10-14T21:39:51.604Z)
Latitude
-0.00003°
Longitude
127.19571°
Altitude
482.81 km
Speed
7.626 km/s
True Right ascension
07h 43m 22s
True Declination
0° 00' 00"
Sunlit
Object was in daylight at epoch
Visualization orbit readout
Latitude
Unknown
Longitude
Unknown
Altitude
Unknown
Speed
Unknown
Apparent Right ascension
Unknown
Apparent Declination
Unknown
Sunlit
N/A
Visualization observer readout
Local Sidereal Time
10:00:16
Azimuth
Unknown
Elevation
Unknown
Doppler factor
Unknown
Orbital elements
Apogee altitude
486.057 km
Perigee altitude
483.929 km
Semi-major axis
6,863.13 km
Eccentricity
0.00016
Inclination
43.0017°
RAAN
115.8452°
Arg. of periapsis
270.8413°
True anomaly
89.24386°
Mean anomaly
89.2261°
Eccentric anomaly
89.23498°
Mean motion
3.81733 °/min
Orbital period
94.31 mins
BSTAR
0.00066311
Loading maneuver chart data...
Computing Atmospheric mass density...
Loading historical data...
Loading historical data...
Loading historical data...
Loading historical data...
Loading historical data...
Loading historical data...
Loading historical data...

Documentation

Showing up to 5 results
|